806  
AXUS43 KGID 261802  
MISGRI  
 
GID CWA HOURLY WEATHER ROUNDUP  
NATIONAL WEATHER SERVICE HASTINGS NE  
100 PM CDT THU APR 26 2018  
 
NOTE: "FAIR" INDICATES FEW OR NO CLOUDS BELOW 12,000 FEET WITH NO  
SIGNIFICANT WEATHER AND/OR OBSTRUCTIONS TO VISIBILITY.  
   
..SOUTH CENTRAL NEBRASKA
 
 
 
CITY SKY/WX TMP DP RH WIND PRES REMARKS  
GRAND ISLAND CLOUDY 59 39 47 N23G32 30.05R  
KEARNEY CLOUDY 58 37 45 N33 30.06S  
HASTINGS SUNNY 59 40 49 N28G37 30.04R  
ORD SUNNY 60 29 30 N33G44 30.09R  
YORK N/A 63 41 45 N15G23 30.01S  
AURORA MOSUNNY 57 39 50 N21 30.03R  
LEXINGTON CLOUDY 61 37 40 N29G39 30.10S  
HOLDREGE PTSUNNY 56 39 52 N25 30.08R  
HEBRON SUNNY 65 43 44 W10G17 30.01F  
   
..NEBRASKA PANHANDLE
 
 
 
CITY SKY/WX TMP DP RH WIND PRES REMARKS  
CHADRON PTSUNNY 59 30 33 N14G21 30.24F  
ALLIANCE MOSUNNY 56 29 35 N23G33 30.23S  
SCOTTSBLUFF MOSUNNY 60 31 33 N21G28 30.25S  
SIDNEY MOSUNNY 57 28 33 N22G30 30.24S  
   
..WESTERN AND NORTH CENTRAL NEBRASKA
 
 
 
CITY SKY/WX TMP DP RH WIND PRES REMARKS  
VALENTINE SUNNY 60 26 27 N21G36 30.18F  
AINSWORTH SUNNY 57 29 34 N25G35 30.17S  
ONEILL SUNNY 60 27 28 N28G39 30.12R  
BROKEN BOW SUNNY 60 33 36 N23G41 30.12R  
IMPERIAL SUNNY 61 30 31 N32G49 30.18R  
NORTH PLATTE SUNNY 61 33 35 NE25G36 30.14S  
MCCOOK PTSUNNY 62 36 37 MISG 30.09R  
   
..EASTERN NEBRASKA
 
 
 
CITY SKY/WX TMP DP RH WIND PRES REMARKS  
NORFOLK PTSUNNY 61 39 44 N30G40 30.00R  
SO SIOUX CITY MOSUNNY 63 39 41 N18G31 29.97R  
TEKAMAH CLOUDY 65 39 38 NW17G24 29.96R  
COLUMBUS PTSUNNY 60 40 47 NW21 30.01R  
ALBION PTSUNNY 62 38 40 N26G33 30.04R  
OMAHA EPPLEY PTSUNNY 66 40 38 W8G21 29.96S  
MILLARD SUNNY 67 43 41 SW12 29.97F  
LINCOLN SUNNY 69 39 33 W14G24 29.99S  
NEBRASKA CITY CLOUDY 63 42 46 SW10 29.99S  
BEATRICE PTSUNNY 65 45 48 W9G17 30.00S  
FALLS CITY CLOUDY 61 42 49 SW6 29.99F  
   
..NORTHERN KANSAS
 
 
 
CITY SKY/WX TMP DP RH WIND PRES REMARKS  
GOODLAND SUNNY 60 33 36 N31G46 30.13R  
HILL CITY MOSUNNY 64 42 44 NE20G31 30.06R  
NORTON CLEAR 61 37 41 N25G32 30.07R  
PHILLIPSBURG SUNNY 64 37 36 N20G26 30.04S  
SMITH CENTER SUNNY 66 43 42 N15 30.03F  
BELOIT SUNNY 61 41 48 CALM 30.02F  
HAYS SUNNY 66 37 34 N8 30.03R  
RUSSELL SUNNY 66 39 37 MISG 30.01S  
CONCORDIA MOSUNNY 62 44 51 W13 30.02S  
SALINA PTSUNNY 63 45 51 E3 30.02F  
TOPEKA CLOUDY 62 45 53 NW9 30.00F  
 
CLICK HERE TO GO TO PREVIOUS BULLETINS.

The Nexlab NE Page
The Nexlab KS Page Main Text Page